Location: Bletchingley
(51.2333°N, 0.1000°W)
Time: 05:09:09
(UTC+00:00)

OBJECT-B - Pass Details

Date: 18 September 2020
Orbit: 421 x 433 km, 97.0° (Epoch: 09 October)

Event Time Altitude Azimuth Distance (km) Brightness Sun altitude
Exits shadow 20:34:37 31° 239° (WSW) 768 2.2 -22.6°
Maximum altitude 20:35:11 34° 263° (W) 726 2.3 -22.6°
Drops below altitude 10° 20:38:11 10° 330° (NNW) 1,524 4.5 -23.0°
Sets 20:40:20 0° 340° (NNW) 2,397 5.5 -23.3°
